Change the Weather History Date:

Tuesday, March 5, 2013

  Actual Average (KEFC) Record (KEFC)
Temperature  
Mean Temperature 16 °F -  
Max Temperature 24 °F 42 °F 62 °F (1968)
Min Temperature 8 °F 15 °F -22 °F (1989)
Degree Days  
Heating Degree Days 49    
Moisture  
Dew Point 9 °F    
Average Humidity 71    
Maximum Humidity 86    
Minimum Humidity 50    
Precipitation  
Precipitation 0.24 in - - ()
Sea Level Pressure  
Sea Level Pressure 30.22 in    
Wind  
Wind Speed 11 mph (WNW)    
Max Wind Speed 23 mph    
Max Gust Speed 33 mph    
Visibility 10 miles    
Events Snow    
Averages and records for this station are not official NWS values.
T = Trace of Precipitation, MM = Missing Value Source: NWS Daily Summary

Daily Weather History Graph

Daily Weather History Graph

Search for Another Location

Airport or City:

Trip Planner

Search our weather history database for the weather conditions in past years. The results will help you decide how hot, cold, wet, or windy it might be!

Date:

Astronomy

Mar. 05, 2013 Rise Set
Actual Time 7:24 AM CST 6:48 PM CST
Civil Twilight 6:55 AM CST 7:17 PM CST
Nautical Twilight 6:22 AM CST 7:51 PM CST
Astronomical Twilight 5:48 AM CST 8:25 PM CST
Moon 2:49 AM CST (3/5) 12:19 PM CST (3/5)
Length of Visible Light 12h 21m
Length of Day
11h 23m
Last Quarter, 40% of the Moon is Illuminated
Mar 5
Last Quarter
Mar 11
New
Mar 19
First Quarter
Mar 27
Full
Apr 2
Last Quarter

Hourly Weather History & Observations

Time (CST) Temp. Windchill Dew Point Humidity Pressure Visibility Wind Dir Wind Speed Gust Speed Precip Events Conditions
12:35 AM 15.8 °F -2.3 °F 10.4 °F 79% 30.23 in 10.0 mi WNW 23.0 mph 31.1 mph 0.23 in Snow Light Snow
12:55 AM 15.8 °F -2.3 °F 8.6 °F 73% 30.22 in 10.0 mi WNW 23.0 mph 33.4 mph 0.24 in Snow Light Snow
1:15 AM 14.0 °F -3.4 °F 6.8 °F 73% 30.22 in 10.0 mi WNW 19.6 mph 28.8 mph N/A Snow Light Snow
1:35 AM 14.0 °F -3.0 °F 6.8 °F 73% 30.23 in 10.0 mi WNW 18.4 mph 26.5 mph N/A Snow Light Snow
1:55 AM 14.0 °F -0.2 °F 6.8 °F 73% 30.23 in 10.0 mi WNW 12.7 mph 20.7 mph N/A   Partly Cloudy
2:15 AM 14.0 °F -2.5 °F 6.8 °F 73% 30.24 in 10.0 mi WNW 17.3 mph 23.0 mph N/A   Clear
2:35 AM 12.2 °F -2.5 °F 6.8 °F 79% 30.25 in 10.0 mi WNW 12.7 mph 18.4 mph N/A   Partly Cloudy
2:55 AM 12.2 °F -1.0 °F 5.0 °F 73% 30.24 in 10.0 mi WNW 10.4 mph - N/A   Scattered Clouds
3:15 AM 10.4 °F 0.8 °F 5.0 °F 79% 30.25 in 10.0 mi West 5.8 mph - N/A   Partly Cloudy
3:35 AM 10.4 °F -0.4 °F 5.0 °F 79% 30.25 in 10.0 mi West 6.9 mph - N/A   Clear
3:55 AM 14.0 °F 0.5 °F 5.0 °F 67% 30.24 in 10.0 mi West 11.5 mph - N/A   Clear
4:15 AM 14.0 °F 0.5 °F 5.0 °F 67% 30.24 in 10.0 mi West 11.5 mph 18.4 mph N/A   Clear
4:35 AM 14.0 °F -0.2 °F 5.0 °F 67% 30.25 in 10.0 mi West 12.7 mph - N/A   Clear
4:55 AM 14.0 °F 2.9 °F 5.0 °F 67% 30.25 in 10.0 mi West 8.1 mph - N/A   Clear
5:15 AM 14.0 °F 2.9 °F 5.0 °F 67% 30.25 in 10.0 mi WSW 8.1 mph - N/A   Clear
5:35 AM 12.2 °F -1.0 °F 5.0 °F 73% 30.25 in 10.0 mi WSW 10.4 mph - N/A   Clear
5:55 AM 10.4 °F 2.2 °F 3.2 °F 73% 30.26 in 10.0 mi West 4.6 mph - N/A   Clear
6:55 AM 10.4 °F -0.4 °F 1.4 °F 67% 30.26 in 10.0 mi West 6.9 mph - N/A   Clear
7:15 AM 8.6 °F -3.7 °F 1.4 °F 73% 30.26 in 10.0 mi WSW 8.1 mph - N/A   Clear
7:35 AM 10.4 °F -0.4 °F 1.4 °F 67% 30.27 in 10.0 mi West 6.9 mph - N/A   Clear
7:55 AM 10.4 °F 0.8 °F 1.4 °F 67% 30.27 in 10.0 mi WNW 5.8 mph - N/A   Clear
8:15 AM 14.0 °F 2.0 °F 3.2 °F 62% 30.27 in 10.0 mi West 9.2 mph - N/A   Clear
8:35 AM 14.0 °F 6.5 °F 5.0 °F 67% 30.28 in 10.0 mi WNW 4.6 mph - N/A   Clear
8:55 AM 15.8 °F 6.1 °F 5.0 °F 62% 30.28 in 10.0 mi West 6.9 mph - N/A   Clear
9:15 AM 17.6 °F 9.3 °F 5.0 °F 58% 30.29 in 10.0 mi West 5.8 mph - N/A   Clear
9:35 AM 17.6 °F 12.3 °F 6.8 °F 63% 30.29 in 10.0 mi West 3.5 mph - N/A   Clear
9:55 AM 19.4 °F 14.3 °F 6.8 °F 58% 30.29 in 10.0 mi North 3.5 mph - N/A   Clear
10:15 AM 19.4 °F 10.4 °F 6.8 °F 58% 30.28 in 10.0 mi NNW 6.9 mph - N/A   Clear
10:35 AM 19.4 °F 9.5 °F 8.6 °F 63% 30.29 in 10.0 mi NNW 8.1 mph - N/A   Clear
10:55 AM 19.4 °F 8.6 °F 8.6 °F 63% 30.29 in 8.0 mi NNW 9.2 mph - N/A   Clear
11:15 AM 19.4 °F 8.6 °F 6.8 °F 58% 30.29 in 7.0 mi NW 9.2 mph - N/A   Clear
11:35 AM 19.4 °F 8.6 °F 6.8 °F 58% 30.28 in 10.0 mi NW 9.2 mph - N/A   Clear
11:55 AM 19.4 °F 9.5 °F 6.8 °F 58% 30.28 in 10.0 mi NW 8.1 mph - N/A   Clear
12:15 PM 21.2 °F 13.6 °F 6.8 °F 54% 30.27 in 10.0 mi NW 5.8 mph - N/A   Clear
12:35 PM 23.0 °F - 6.8 °F 50% 30.25 in 10.0 mi Calm Calm - N/A   Clear
12:55 PM 21.2 °F 14.9 °F 10.4 °F 63% 30.26 in 10.0 mi NE 4.6 mph - N/A   Clear
1:15 PM 23.0 °F 14.7 °F 12.2 °F 63% 30.24 in 10.0 mi ENE 6.9 mph - N/A   Clear
1:35 PM 23.0 °F - 10.4 °F 59% 30.24 in 10.0 mi Calm Calm - N/A   Clear
1:55 PM 23.0 °F 17.0 °F 12.2 °F 63% 30.23 in 10.0 mi ESE 4.6 mph - N/A   Clear
2:15 PM 24.8 °F 20.5 °F 10.4 °F 54% 30.22 in 7.0 mi NE 3.5 mph - N/A   Clear
2:35 PM 23.0 °F 15.8 °F 12.2 °F 63% 30.22 in 10.0 mi NE 5.8 mph - N/A   Clear
2:55 PM 24.8 °F 17.9 °F 14.0 °F 64% 30.22 in 10.0 mi NE 5.8 mph - N/A   Clear
3:15 PM 24.8 °F 17.9 °F 14.0 °F 64% 30.22 in 10.0 mi NE 5.8 mph - N/A   Clear
3:35 PM 24.8 °F 16.1 °F 14.0 °F 64% 30.21 in 10.0 mi NE 8.1 mph - N/A   Clear
3:55 PM 24.8 °F 16.1 °F 15.8 °F 69% 30.21 in 10.0 mi ENE 8.1 mph - N/A   Clear
4:15 PM 24.8 °F 15.3 °F 15.8 °F 69% 30.20 in 10.0 mi ENE 9.2 mph - N/A   Clear
4:35 PM 24.8 °F 16.1 °F 15.8 °F 69% 30.20 in 10.0 mi East 8.1 mph - N/A   Clear
4:55 PM 24.8 °F 15.3 °F 15.8 °F 69% 30.19 in 10.0 mi ENE 9.2 mph - N/A   Clear
5:15 PM 24.8 °F 15.3 °F 15.8 °F 69% 30.19 in 10.0 mi East 9.2 mph - N/A   Clear
5:35 PM 23.0 °F 13.9 °F 15.8 °F 74% 30.19 in 10.0 mi East 8.1 mph - N/A   Clear
5:55 PM 23.0 °F 13.9 °F 15.8 °F 74% 30.19 in 10.0 mi East 8.1 mph - N/A   Clear
6:15 PM 21.2 °F 11.7 °F 15.8 °F 80% 30.18 in 10.0 mi East 8.1 mph - N/A   Clear
6:35 PM 21.2 °F 12.6 °F 15.8 °F 80% 30.17 in 10.0 mi ENE 6.9 mph - N/A   Clear
6:55 PM 19.4 °F 11.5 °F 15.8 °F 86% 30.17 in 10.0 mi ENE 5.8 mph - N/A   Clear
7:15 PM 19.4 °F 10.4 °F 15.8 °F 86% 30.17 in 10.0 mi ENE 6.9 mph - N/A   Clear
7:35 PM 19.4 °F 11.5 °F 14.0 °F 80% 30.16 in 10.0 mi ESE 5.8 mph - N/A   Clear
7:55 PM 17.6 °F 9.3 °F 12.2 °F 79% 30.15 in 10.0 mi SE 5.8 mph - N/A   Clear
8:15 PM 17.6 °F 12.3 °F 12.2 °F 79% 30.14 in 10.0 mi SSE 3.5 mph - N/A   Clear
8:35 PM 17.6 °F - 10.4 °F 73% 30.14 in 10.0 mi Calm Calm - N/A   Clear
8:55 PM 15.8 °F 10.2 °F 12.2 °F 86% 30.14 in 10.0 mi WSW 3.5 mph - N/A   Clear
9:15 PM 15.8 °F 8.6 °F 12.2 °F 86% 30.14 in 10.0 mi SW 4.6 mph - N/A   Clear
9:35 PM 17.6 °F 12.3 °F 12.2 °F 79% 30.14 in 10.0 mi SW 3.5 mph - N/A   Clear
9:55 PM 17.6 °F 8.2 °F 14.0 °F 86% 30.13 in 10.0 mi West 6.9 mph - N/A   Clear
10:15 PM 15.8 °F 7.2 °F 12.2 °F 86% 30.13 in 10.0 mi WSW 5.8 mph - N/A   Clear
10:35 PM 15.8 °F - 12.2 °F 86% 30.14 in 10.0 mi Calm Calm - N/A   Clear
10:55 PM 17.6 °F 12.3 °F 14.0 °F 86% 30.13 in 10.0 mi WSW 3.5 mph - N/A   Clear
11:15 PM 15.8 °F 10.2 °F 12.2 °F 86% 30.12 in 10.0 mi West 3.5 mph - N/A   Clear
11:35 PM 15.8 °F - 12.2 °F 86% 30.11 in 10.0 mi Calm Calm - N/A   Clear
11:55 PM 15.8 °F - 10.4 °F 79% 30.10 in 10.0 mi Calm Calm - N/A   Clear